28.03.2024;17:00;13,87
28.03.2024;16:45;13,87
28.03.2024;16:30;13,84
28.03.2024;16:15;13,84
28.03.2024;16:00;13,84
28.03.2024;15:45;13,84
28.03.2024;15:30;13,84
28.03.2024;15:15;13,81
28.03.2024;15:00;13,81
28.03.2024;14:45;13,78
28.03.2024;14:30;13,81
28.03.2024;14:15;13,84
28.03.2024;14:00;13,87
28.03.2024;13:45;13,93
28.03.2024;13:30;13,96
28.03.2024;13:15;13,99
28.03.2024;13:00;14,05
28.03.2024;12:45;14,12
28.03.2024;12:30;14,12
28.03.2024;12:15;14,18
28.03.2024;12:00;14,21
28.03.2024;11:45;14,21
28.03.2024;11:30;14,24
28.03.2024;11:15;14,24
28.03.2024;11:00;14,78
28.03.2024;10:45;14,66
28.03.2024;10:30;14,57
28.03.2024;10:15;14,54
28.03.2024;10:00;14,42
28.03.2024;09:45;14,48
28.03.2024;09:30;14,39
28.03.2024;09:15;14,36
28.03.2024;09:00;14,45
28.03.2024;08:45;14,21
28.03.2024;08:30;13,23
28.03.2024;08:15;13,11
28.03.2024;08:00;13,08
28.03.2024;07:45;12,99
28.03.2024;07:30;12,99
28.03.2024;07:15;12,96
28.03.2024;07:00;12,90
28.03.2024;06:45;12,90
28.03.2024;06:30;12,90
28.03.2024;06:15;12,90
28.03.2024;06:00;12,93
28.03.2024;05:45;12,93
28.03.2024;05:30;12,93
28.03.2024;05:15;12,93
28.03.2024;05:00;12,93
28.03.2024;04:45;12,93
28.03.2024;04:30;12,93
28.03.2024;04:15;12,93
28.03.2024;04:00;12,96
28.03.2024;03:45;12,96
28.03.2024;03:30;12,96
28.03.2024;03:15;12,96
28.03.2024;03:00;12,96
28.03.2024;02:45;12,96
28.03.2024;02:30;12,96
28.03.2024;02:15;12,99
28.03.2024;02:00;12,99
28.03.2024;01:45;12,99
28.03.2024;01:30;12,99
28.03.2024;01:15;12,99
28.03.2024;01:00;12,99
28.03.2024;00:45;12,99
28.03.2024;00:30;12,99
28.03.2024;00:15;12,99
28.03.2024;00:00;13,02
27.03.2024;23:45;13,02
27.03.2024;23:30;13,02
27.03.2024;23:15;13,02
27.03.2024;23:00;13,05
27.03.2024;22:45;13,05
27.03.2024;22:30;13,05
27.03.2024;22:15;13,05
27.03.2024;22:00;13,08
27.03.2024;21:45;13,08
27.03.2024;21:30;13,11
27.03.2024;21:15;13,11
27.03.2024;21:00;13,14
27.03.2024;20:45;13,14
27.03.2024;20:30;13,14
27.03.2024;20:15;13,17
27.03.2024;20:00;13,20
27.03.2024;19:45;13,23
27.03.2024;19:30;13,23
27.03.2024;19:15;13,26
27.03.2024;19:00;13,29
27.03.2024;18:45;13,32
27.03.2024;18:30;13,36
27.03.2024;18:15;13,39
27.03.2024;18:00;13,45
27.03.2024;17:45;13,51
27.03.2024;17:30;13,57
27.03.2024;17:15;13,69
27.03.2024;17:00;14,15
27.03.2024;16:45;14,12
27.03.2024;16:30;14,12
27.03.2024;16:15;14,12
27.03.2024;16:00;14,09
27.03.2024;15:45;14,09
27.03.2024;15:30;14,05
27.03.2024;15:15;14,05
27.03.2024;15:00;14,05
27.03.2024;14:45;14,09
27.03.2024;14:30;14,09
27.03.2024;14:15;14,12
27.03.2024;14:00;14,15
27.03.2024;13:45;14,21
27.03.2024;13:30;14,21
27.03.2024;13:15;14,21
27.03.2024;13:00;14,24
27.03.2024;12:45;14,24
27.03.2024;12:30;14,24
27.03.2024;12:15;14,24
27.03.2024;12:00;14,27
27.03.2024;11:45;14,27
27.03.2024;11:30;14,27
27.03.2024;11:15;14,30
27.03.2024;11:00;14,30
27.03.2024;10:45;14,33
27.03.2024;10:30;14,33
27.03.2024;10:15;14,30
27.03.2024;10:00;14,97
27.03.2024;09:45;14,63
27.03.2024;09:30;14,33
27.03.2024;09:15;13,72
27.03.2024;09:00;13,36
27.03.2024;08:45;13,26
27.03.2024;08:30;13,23
27.03.2024;08:15;13,14
27.03.2024;08:00;13,02
27.03.2024;07:45;12,96
27.03.2024;07:30;12,90
27.03.2024;07:15;12,87
27.03.2024;07:00;12,90
27.03.2024;06:45;12,84
27.03.2024;06:30;12,96
27.03.2024;06:15;12,81
27.03.2024;06:00;12,90
27.03.2024;05:45;12,93
27.03.2024;05:30;12,87
27.03.2024;05:15;12,90
27.03.2024;05:00;12,90
27.03.2024;04:45;12,93
27.03.2024;04:30;12,90
27.03.2024;04:15;12,93
27.03.2024;04:00;12,93
27.03.2024;03:45;12,93
27.03.2024;03:30;12,93
27.03.2024;03:15;12,90
27.03.2024;03:00;12,96
27.03.2024;02:45;12,99
27.03.2024;02:30;12,99
27.03.2024;02:15;12,96
27.03.2024;02:00;12,96
27.03.2024;01:45;12,96
27.03.2024;01:30;12,96
27.03.2024;01:15;12,99
27.03.2024;01:00;13,02
27.03.2024;00:45;13,02
27.03.2024;00:30;13,02
27.03.2024;00:15;13,02
27.03.2024;00:00;13,05
26.03.2024;23:45;13,05
26.03.2024;23:30;13,08
26.03.2024;23:15;13,05
26.03.2024;23:00;13,08
26.03.2024;22:45;13,08
26.03.2024;22:30;13,11
26.03.2024;22:15;13,11
26.03.2024;22:00;13,11
26.03.2024;21:45;13,14
26.03.2024;21:30;13,14
26.03.2024;21:15;13,17
26.03.2024;21:00;13,20
26.03.2024;20:45;13,23
26.03.2024;20:30;13,23
26.03.2024;20:15;13,26
26.03.2024;20:00;13,29
26.03.2024;19:45;13,32
26.03.2024;19:30;13,39
26.03.2024;19:15;13,42
26.03.2024;19:00;13,48
26.03.2024;18:45;13,60
26.03.2024;18:30;13,90
26.03.2024;18:15;13,75
26.03.2024;18:00;13,93
26.03.2024;17:45;13,87
26.03.2024;17:30;13,87
26.03.2024;17:15;13,87
26.03.2024;17:00;13,87
26.03.2024;16:45;13,90
26.03.2024;16:30;13,93
26.03.2024;16:15;13,96
26.03.2024;16:00;13,99
26.03.2024;15:45;13,99
26.03.2024;15:30;13,99
26.03.2024;15:15;13,99
26.03.2024;15:00;13,96
26.03.2024;14:45;13,96
26.03.2024;14:30;13,96
26.03.2024;14:15;13,99
26.03.2024;14:00;14,02
26.03.2024;13:45;14,09
26.03.2024;13:30;14,12
26.03.2024;13:15;14,15
26.03.2024;13:00;14,21
26.03.2024;12:45;14,24
26.03.2024;12:30;14,30
26.03.2024;12:15;14,33
26.03.2024;12:00;14,36
26.03.2024;11:45;14,36
26.03.2024;11:30;14,39
26.03.2024;11:15;14,39
26.03.2024;11:00;14,39
26.03.2024;10:45;14,45
26.03.2024;10:30;14,42
26.03.2024;10:15;14,94
26.03.2024;10:00;14,69
26.03.2024;09:45;14,51
26.03.2024;09:30;14,27
26.03.2024;09:15;13,57
26.03.2024;09:00;13,32
26.03.2024;08:45;13,14
26.03.2024;08:30;13,08
26.03.2024;08:15;12,99
26.03.2024;08:00;12,93
26.03.2024;07:45;12,87
26.03.2024;07:30;12,84
26.03.2024;07:15;12,84
26.03.2024;07:00;12,87
26.03.2024;06:45;12,87
26.03.2024;06:30;12,87
26.03.2024;06:15;12,87
26.03.2024;06:00;12,87
26.03.2024;05:45;12,87
26.03.2024;05:30;12,87
26.03.2024;05:15;12,90
26.03.2024;05:00;12,87
26.03.2024;04:45;12,90
26.03.2024;04:30;12,87
26.03.2024;04:15;12,90
26.03.2024;04:00;12,90
26.03.2024;03:45;12,90
26.03.2024;03:30;12,90
26.03.2024;03:15;12,90
26.03.2024;03:00;12,93
26.03.2024;02:45;12,90
26.03.2024;02:30;12,93
26.03.2024;02:15;12,93
26.03.2024;02:00;12,93
26.03.2024;01:45;12,96
26.03.2024;01:30;12,96
26.03.2024;01:15;12,96
26.03.2024;01:00;12,96
26.03.2024;00:45;12,99
26.03.2024;00:30;12,93
26.03.2024;00:15;12,96
26.03.2024;00:00;12,99
25.03.2024;23:45;13,05
25.03.2024;23:30;13,02
25.03.2024;23:15;13,02
25.03.2024;23:00;13,05
25.03.2024;22:45;13,05
25.03.2024;22:30;13,08
25.03.2024;22:15;13,08
25.03.2024;22:00;13,11
25.03.2024;21:45;13,11
25.03.2024;21:30;13,14
25.03.2024;21:15;13,14
25.03.2024;21:00;13,14
25.03.2024;20:45;13,17
25.03.2024;20:30;13,20
25.03.2024;20:15;13,23
25.03.2024;20:00;13,26
25.03.2024;19:45;13,26
25.03.2024;19:30;13,29
25.03.2024;19:15;13,32
25.03.2024;19:00;13,36
25.03.2024;18:45;13,39
25.03.2024;18:30;13,42
25.03.2024;18:15;13,45
25.03.2024;18:00;13,51
25.03.2024;17:45;13,54
25.03.2024;17:30;13,60
25.03.2024;17:15;13,78
25.03.2024;17:00;14,30
25.03.2024;16:45;14,30
25.03.2024;16:30;14,33
25.03.2024;16:15;14,30
25.03.2024;16:00;14,30
25.03.2024;15:45;14,30
25.03.2024;15:30;14,27
25.03.2024;15:15;14,27
25.03.2024;15:00;14,27
25.03.2024;14:45;14,27
25.03.2024;14:30;14,27
25.03.2024;14:15;14,24
25.03.2024;14:00;14,24
25.03.2024;13:45;14,24
25.03.2024;13:30;14,27
25.03.2024;13:15;14,30
25.03.2024;13:00;14,33
25.03.2024;12:45;14,33
25.03.2024;12:30;14,33
25.03.2024;12:15;14,33
25.03.2024;12:00;14,33
25.03.2024;11:45;14,36
25.03.2024;11:30;14,33
25.03.2024;11:15;14,36
25.03.2024;11:00;14,36
25.03.2024;10:45;14,36
25.03.2024;10:30;14,36
25.03.2024;10:15;14,36
25.03.2024;10:00;14,36
25.03.2024;09:45;13,87
25.03.2024;09:30;14,39
25.03.2024;09:15;14,63
25.03.2024;09:00;14,57
25.03.2024;08:45;14,36
25.03.2024;08:30;13,23
25.03.2024;08:15;13,14
25.03.2024;08:00;13,05
25.03.2024;07:45;12,96
25.03.2024;07:30;12,90
25.03.2024;07:15;12,87
25.03.2024;07:00;12,87
25.03.2024;06:45;12,87
25.03.2024;06:30;12,90
25.03.2024;06:15;12,87
25.03.2024;06:00;12,87
25.03.2024;05:45;12,90
25.03.2024;05:30;12,87
25.03.2024;05:15;12,87
25.03.2024;05:00;12,90
25.03.2024;04:45;12,87
25.03.2024;04:30;12,90
25.03.2024;04:15;12,90
25.03.2024;04:00;12,93
25.03.2024;03:45;12,90
25.03.2024;03:30;12,90
25.03.2024;03:15;12,90
25.03.2024;03:00;12,93
25.03.2024;02:45;12,93
25.03.2024;02:30;12,93
25.03.2024;02:15;12,96
25.03.2024;02:00;12,93
25.03.2024;01:45;12,93
25.03.2024;01:30;12,96
25.03.2024;01:15;12,96
25.03.2024;01:00;12,96
25.03.2024;00:45;12,96
25.03.2024;00:30;12,99
25.03.2024;00:15;12,99
25.03.2024;00:00;12,99
24.03.2024;23:45;13,02
24.03.2024;23:30;12,99
24.03.2024;23:15;13,02
24.03.2024;23:00;13,02
24.03.2024;22:45;13,05
24.03.2024;22:30;13,05
24.03.2024;22:15;13,05
24.03.2024;22:00;13,05
24.03.2024;21:45;13,08
24.03.2024;21:30;13,08
24.03.2024;21:15;13,08
24.03.2024;21:00;13,11
24.03.2024;20:45;13,14
24.03.2024;20:30;13,14
24.03.2024;20:15;13,14
24.03.2024;20:00;13,17
24.03.2024;19:45;13,20
24.03.2024;19:30;13,23
24.03.2024;19:15;13,23
24.03.2024;19:00;13,26
24.03.2024;18:45;13,29
24.03.2024;18:30;13,32
24.03.2024;18:15;13,36
24.03.2024;18:00;13,39
24.03.2024;17:45;13,39
24.03.2024;17:30;13,45
24.03.2024;17:15;13,48
24.03.2024;17:00;13,54
24.03.2024;16:45;13,60
24.03.2024;16:30;13,66
24.03.2024;16:15;13,84
24.03.2024;16:00;14,33
24.03.2024;15:45;14,33
24.03.2024;15:30;14,33
24.03.2024;15:15;14,33
24.03.2024;15:00;14,33
24.03.2024;14:45;14,33
24.03.2024;14:30;14,33
24.03.2024;14:15;14,36
24.03.2024;14:00;14,36
24.03.2024;13:45;14,36
24.03.2024;13:30;14,33
24.03.2024;13:15;14,33
24.03.2024;13:00;14,33
24.03.2024;12:45;14,33
24.03.2024;12:30;14,33
24.03.2024;12:15;14,33
24.03.2024;12:00;14,33
24.03.2024;11:45;14,33
24.03.2024;11:30;14,33
24.03.2024;11:15;14,33
24.03.2024;11:00;14,33
24.03.2024;10:45;14,33
24.03.2024;10:30;14,33
24.03.2024;10:15;14,36
24.03.2024;10:00;14,75
24.03.2024;09:45;14,88
24.03.2024;09:30;13,39
24.03.2024;09:15;13,26
24.03.2024;09:00;13,17
24.03.2024;08:45;13,17
24.03.2024;08:30;13,08
24.03.2024;08:15;12,96
24.03.2024;08:00;12,93
24.03.2024;07:45;12,90
24.03.2024;07:30;12,90
24.03.2024;07:15;12,90
24.03.2024;07:00;12,90
24.03.2024;06:45;12,90
24.03.2024;06:30;12,90
24.03.2024;06:15;12,90
24.03.2024;06:00;12,93
24.03.2024;05:45;12,93
24.03.2024;05:30;12,90
24.03.2024;05:15;12,93
24.03.2024;05:00;12,93
24.03.2024;04:45;12,93
24.03.2024;04:30;12,93
24.03.2024;04:15;12,93
24.03.2024;04:00;12,96
24.03.2024;03:45;12,96
24.03.2024;03:30;12,96
24.03.2024;03:15;12,96
24.03.2024;03:00;12,96
24.03.2024;02:45;12,99
24.03.2024;02:30;12,99
24.03.2024;02:15;12,96
24.03.2024;02:00;12,99
24.03.2024;01:45;12,99
24.03.2024;01:30;12,99
24.03.2024;01:15;12,99
24.03.2024;01:00;12,99
24.03.2024;00:45;13,02
24.03.2024;00:30;13,02
24.03.2024;00:15;12,99
24.03.2024;00:00;13,02
23.03.2024;23:45;13,02
23.03.2024;23:30;13,02
23.03.2024;23:15;13,05
23.03.2024;23:00;13,05
23.03.2024;22:45;13,05
23.03.2024;22:30;13,08
23.03.2024;22:15;13,08
23.03.2024;22:00;13,11
23.03.2024;21:45;13,11
23.03.2024;21:30;13,11
23.03.2024;21:15;13,11
23.03.2024;21:00;13,14
23.03.2024;20:45;13,14
23.03.2024;20:30;13,17
23.03.2024;20:15;13,17
23.03.2024;20:00;13,20
23.03.2024;19:45;13,23
23.03.2024;19:30;13,26
23.03.2024;19:15;13,29
23.03.2024;19:00;13,32
23.03.2024;18:45;13,36
23.03.2024;18:30;13,39
23.03.2024;18:15;13,42
23.03.2024;18:00;13,48
23.03.2024;17:45;13,51
23.03.2024;17:30;13,57
23.03.2024;17:15;13,66
23.03.2024;17:00;14,09
23.03.2024;16:45;14,30
23.03.2024;16:30;14,30
23.03.2024;16:15;14,27
23.03.2024;16:00;14,30
23.03.2024;15:45;14,27
23.03.2024;15:30;14,30
23.03.2024;15:15;14,30
23.03.2024;15:00;14,27
23.03.2024;14:45;14,27
23.03.2024;14:30;14,30
23.03.2024;14:15;14,27
23.03.2024;14:00;14,27
23.03.2024;13:45;14,30
23.03.2024;13:30;14,27
23.03.2024;13:15;14,27
23.03.2024;13:00;14,27
23.03.2024;12:45;14,27
23.03.2024;12:30;14,27
23.03.2024;12:15;14,27
23.03.2024;12:00;14,30
23.03.2024;11:45;14,30
23.03.2024;11:30;14,27
23.03.2024;11:15;14,30
23.03.2024;11:00;14,30
23.03.2024;10:45;14,30
23.03.2024;10:30;14,30
23.03.2024;10:15;14,27
23.03.2024;10:00;14,30
23.03.2024;09:45;14,33
23.03.2024;09:30;14,30
23.03.2024;09:15;14,82
23.03.2024;09:00;13,29
23.03.2024;08:45;13,14
23.03.2024;08:30;13,05
23.03.2024;08:15;13,02
23.03.2024;08:00;12,96
23.03.2024;07:45;12,93
23.03.2024;07:30;12,90
23.03.2024;07:15;12,90
23.03.2024;07:00;12,90
23.03.2024;06:45;12,90
23.03.2024;06:30;12,90
23.03.2024;06:15;12,90
23.03.2024;06:00;12,93
23.03.2024;05:45;12,93
23.03.2024;05:30;12,93
23.03.2024;05:15;12,90
23.03.2024;05:00;12,93
23.03.2024;04:45;12,93
23.03.2024;04:30;12,93
23.03.2024;04:15;12,93
23.03.2024;04:00;12,93
23.03.2024;03:45;12,93
23.03.2024;03:30;12,93
23.03.2024;03:15;12,93
23.03.2024;03:00;12,96
23.03.2024;02:45;12,96
23.03.2024;02:30;12,93
23.03.2024;02:15;12,96
23.03.2024;02:00;12,96
23.03.2024;01:45;12,96
23.03.2024;01:30;12,96
23.03.2024;01:15;12,96
23.03.2024;01:00;12,99
23.03.2024;00:45;12,99
23.03.2024;00:30;12,99
23.03.2024;00:15;12,99
23.03.2024;00:00;12,99
22.03.2024;23:45;12,99
22.03.2024;23:30;12,99
22.03.2024;23:15;12,99
22.03.2024;23:00;13,02
22.03.2024;22:45;13,02
22.03.2024;22:30;13,02
22.03.2024;22:15;13,05
22.03.2024;22:00;13,05
22.03.2024;21:45;13,05
22.03.2024;21:30;13,05
22.03.2024;21:15;13,05
22.03.2024;21:00;13,08
22.03.2024;20:45;13,11
22.03.2024;20:30;13,11
22.03.2024;20:15;13,11
22.03.2024;20:00;13,14
22.03.2024;19:45;13,14
22.03.2024;19:30;13,17
22.03.2024;19:15;13,20
22.03.2024;19:00;13,23
22.03.2024;18:45;13,23
22.03.2024;18:30;13,26
22.03.2024;18:15;13,29
22.03.2024;18:00;13,36
22.03.2024;17:45;13,36
22.03.2024;17:30;13,42
22.03.2024;17:15;13,78
22.03.2024;17:00;13,48
22.03.2024;16:45;13,48
22.03.2024;16:30;13,54
22.03.2024;16:15;13,75
22.03.2024;16:00;13,69
22.03.2024;15:45;13,63
22.03.2024;15:30;13,66
22.03.2024;15:15;13,87
22.03.2024;15:00;13,84
22.03.2024;14:45;13,69
22.03.2024;14:30;13,66
22.03.2024;14:15;14,09
22.03.2024;14:00;14,27
22.03.2024;13:45;14,27
22.03.2024;13:30;14,27
22.03.2024;13:15;14,27
22.03.2024;13:00;14,27
22.03.2024;12:45;14,27
22.03.2024;12:30;14,21
22.03.2024;12:15;13,84
22.03.2024;12:00;14,63
22.03.2024;11:45;14,30
22.03.2024;11:30;14,51
22.03.2024;11:15;13,93
22.03.2024;11:00;13,66
22.03.2024;10:45;13,69
22.03.2024;10:30;13,17
22.03.2024;10:15;13,08
22.03.2024;10:00;13,05
22.03.2024;09:45;13,02
22.03.2024;09:30;12,99
22.03.2024;09:15;12,96
22.03.2024;09:00;12,96
22.03.2024;08:45;12,93
22.03.2024;08:30;12,93
22.03.2024;08:15;12,93
22.03.2024;08:00;12,93
22.03.2024;07:45;12,93
22.03.2024;07:30;12,93
22.03.2024;07:15;12,93
22.03.2024;07:00;12,96
22.03.2024;06:45;12,96
22.03.2024;06:30;12,96
22.03.2024;06:15;12,93
22.03.2024;06:00;12,96
22.03.2024;05:45;12,96
22.03.2024;05:30;12,96
22.03.2024;05:15;12,96
22.03.2024;05:00;12,96
22.03.2024;04:45;12,96
22.03.2024;04:30;12,96
22.03.2024;04:15;12,96
22.03.2024;04:00;12,99
22.03.2024;03:45;12,99
22.03.2024;03:30;12,96
22.03.2024;03:15;12,99
22.03.2024;03:00;12,99
22.03.2024;02:45;12,99
22.03.2024;02:30;12,99
22.03.2024;02:15;12,99
22.03.2024;02:00;12,99
22.03.2024;01:45;12,99
22.03.2024;01:30;12,99
22.03.2024;01:15;12,99
22.03.2024;01:00;13,02
22.03.2024;00:45;13,02
22.03.2024;00:30;13,02
22.03.2024;00:15;13,02
22.03.2024;00:00;13,05
21.03.2024;23:45;13,02
21.03.2024;23:30;13,02
21.03.2024;23:15;13,05
21.03.2024;23:00;13,05
21.03.2024;22:45;13,05
21.03.2024;22:30;13,08
21.03.2024;22:15;13,08
21.03.2024;22:00;13,08
21.03.2024;21:45;13,11
21.03.2024;21:30;13,11
21.03.2024;21:15;13,11
21.03.2024;21:00;13,14
21.03.2024;20:45;13,14
21.03.2024;20:30;13,17
21.03.2024;20:15;13,17
21.03.2024;20:00;13,23
21.03.2024;19:45;13,23
21.03.2024;19:30;13,26
21.03.2024;19:15;13,29
21.03.2024;19:00;13,36
21.03.2024;18:45;13,42
21.03.2024;18:30;13,51
21.03.2024;18:15;13,63
21.03.2024;18:00;13,96
21.03.2024;17:45;13,96
21.03.2024;17:30;13,96
21.03.2024;17:15;13,90
21.03.2024;17:00;13,96
21.03.2024;16:45;13,90
21.03.2024;16:30;13,93
21.03.2024;16:15;13,93
21.03.2024;16:00;13,93
21.03.2024;15:45;13,93
21.03.2024;15:30;13,93
21.03.2024;15:15;13,90
21.03.2024;15:00;13,90
21.03.2024;14:45;13,96
21.03.2024;14:30;13,96
21.03.2024;14:15;13,96
21.03.2024;14:00;14,05
21.03.2024;13:45;14,05
21.03.2024;13:30;14,05
21.03.2024;13:15;14,09
21.03.2024;13:00;14,15
21.03.2024;12:45;14,18
21.03.2024;12:30;14,21
21.03.2024;12:15;14,21
21.03.2024;12:00;14,24
21.03.2024;11:45;14,24
21.03.2024;11:30;14,27
21.03.2024;11:15;14,30
21.03.2024;11:00;14,27
21.03.2024;10:45;14,30
21.03.2024;10:30;14,27
21.03.2024;10:15;14,30
21.03.2024;10:00;14,42
21.03.2024;09:45;14,78
21.03.2024;09:30;14,69
21.03.2024;09:15;14,82
21.03.2024;09:00;14,78
21.03.2024;08:45;14,39
21.03.2024;08:30;13,78
21.03.2024;08:15;13,05
21.03.2024;08:00;12,93
21.03.2024;07:45;12,93
21.03.2024;07:30;12,90
21.03.2024;07:15;12,90
21.03.2024;07:00;12,93
21.03.2024;06:45;12,93
21.03.2024;06:30;12,93
21.03.2024;06:15;12,93
21.03.2024;06:00;12,96
21.03.2024;05:45;12,93
21.03.2024;05:30;12,93
21.03.2024;05:15;12,93
21.03.2024;05:00;12,96
21.03.2024;04:45;12,96
21.03.2024;04:30;12,96
21.03.2024;04:15;12,96
21.03.2024;04:00;12,96
21.03.2024;03:45;12,99
21.03.2024;03:30;12,99
21.03.2024;03:15;12,96
21.03.2024;03:00;12,96
21.03.2024;02:45;12,99
21.03.2024;02:30;12,99
21.03.2024;02:15;12,99
21.03.2024;02:00;12,99
21.03.2024;01:45;12,99
21.03.2024;01:30;12,99
21.03.2024;01:15;12,99
21.03.2024;01:00;12,99
21.03.2024;00:45;12,99
21.03.2024;00:30;12,99
21.03.2024;00:15;12,99
21.03.2024;00:00;13,02
20.03.2024;23:45;13,02
20.03.2024;23:30;13,02
20.03.2024;23:15;13,02
20.03.2024;23:00;13,02
20.03.2024;22:45;13,02
20.03.2024;22:30;13,05
20.03.2024;22:15;13,02
20.03.2024;22:00;13,05
20.03.2024;21:45;13,05
20.03.2024;21:30;13,05
20.03.2024;21:15;13,05
20.03.2024;21:00;13,08
20.03.2024;20:45;13,08
20.03.2024;20:30;13,08
20.03.2024;20:15;13,11
20.03.2024;20:00;13,11
20.03.2024;19:45;13,11
20.03.2024;19:30;13,14
20.03.2024;19:15;13,14
20.03.2024;19:00;13,17
20.03.2024;18:45;13,17
20.03.2024;18:30;13,20
20.03.2024;18:15;13,23
20.03.2024;18:00;13,26
20.03.2024;17:45;13,29
20.03.2024;17:30;13,36
20.03.2024;17:15;13,39
20.03.2024;17:00;13,45
20.03.2024;16:45;13,51
20.03.2024;16:30;13,60
20.03.2024;16:15;13,84
20.03.2024;16:00;14,12
20.03.2024;15:45;14,12
20.03.2024;15:30;14,12
20.03.2024;15:15;14,15
20.03.2024;15:00;14,15
20.03.2024;14:45;14,15
20.03.2024;14:30;14,18
20.03.2024;14:15;14,21
20.03.2024;14:00;14,21
20.03.2024;13:45;14,21
20.03.2024;13:30;14,21
20.03.2024;13:15;14,21
20.03.2024;13:00;14,24
20.03.2024;12:45;14,24
20.03.2024;12:30;14,24
20.03.2024;12:15;14,24
20.03.2024;12:00;14,27
20.03.2024;11:45;14,27
20.03.2024;11:30;14,27
20.03.2024;11:15;14,27
20.03.2024;11:00;14,30
20.03.2024;10:45;14,30
20.03.2024;10:30;14,30
20.03.2024;10:15;14,30
20.03.2024;10:00;14,30
20.03.2024;09:45;14,94
20.03.2024;09:30;14,69
20.03.2024;09:15;14,36
20.03.2024;09:00;13,66
20.03.2024;08:45;13,20
20.03.2024;08:30;13,08
20.03.2024;08:15;13,02
20.03.2024;08:00;12,96
20.03.2024;07:45;12,93
20.03.2024;07:30;12,93
20.03.2024;07:15;12,93
20.03.2024;07:00;12,93
20.03.2024;06:45;12,93
20.03.2024;06:30;12,93
20.03.2024;06:15;12,93
20.03.2024;06:00;12,96
20.03.2024;05:45;12,93
20.03.2024;05:30;12,96
20.03.2024;05:15;12,96
20.03.2024;05:00;12,96
20.03.2024;04:45;12,96
20.03.2024;04:30;12,96
20.03.2024;04:15;12,96
20.03.2024;04:00;12,96
20.03.2024;03:45;12,96
20.03.2024;03:30;12,96
20.03.2024;03:15;12,96
20.03.2024;03:00;12,99
20.03.2024;02:45;12,99
20.03.2024;02:30;12,99
20.03.2024;02:15;12,96
20.03.2024;02:00;12,99
20.03.2024;01:45;12,99
20.03.2024;01:30;12,99
20.03.2024;01:15;13,02
20.03.2024;01:00;12,99
20.03.2024;00:45;12,99
20.03.2024;00:30;12,99
20.03.2024;00:15;12,99
20.03.2024;00:00;13,02
19.03.2024;23:45;13,02
19.03.2024;23:30;13,02
19.03.2024;23:15;13,02
19.03.2024;23:00;13,02
19.03.2024;22:45;13,05
19.03.2024;22:30;13,05
19.03.2024;22:15;13,05
19.03.2024;22:00;13,05
19.03.2024;21:45;13,05
19.03.2024;21:30;13,08
19.03.2024;21:15;13,08
19.03.2024;21:00;13,11
19.03.2024;20:45;13,11
19.03.2024;20:30;13,11
19.03.2024;20:15;13,11
19.03.2024;20:00;13,14
19.03.2024;19:45;13,14
19.03.2024;19:30;13,17
19.03.2024;19:15;13,20
19.03.2024;19:00;13,23
19.03.2024;18:45;13,26
19.03.2024;18:30;13,29
19.03.2024;18:15;13,32
19.03.2024;18:00;13,36
19.03.2024;17:45;13,42
19.03.2024;17:30;13,48
19.03.2024;17:15;13,54
19.03.2024;17:00;13,72
19.03.2024;16:45;14,15
19.03.2024;16:30;14,15
19.03.2024;16:15;14,15
19.03.2024;16:00;14,12
19.03.2024;15:45;14,09
19.03.2024;15:30;14,05
19.03.2024;15:15;14,02
19.03.2024;15:00;14,02
19.03.2024;14:45;14,05
19.03.2024;14:30;14,05
19.03.2024;14:15;14,09
19.03.2024;14:00;14,09
19.03.2024;13:45;14,15
19.03.2024;13:30;14,18
19.03.2024;13:15;14,21
19.03.2024;13:00;14,24
19.03.2024;12:45;14,30
19.03.2024;12:30;14,33
19.03.2024;12:15;14,33
19.03.2024;12:00;14,36
19.03.2024;11:45;14,36
19.03.2024;11:30;14,39
19.03.2024;11:15;14,36
19.03.2024;11:00;14,39
19.03.2024;10:45;14,39
19.03.2024;10:30;15,06
19.03.2024;10:15;14,72
19.03.2024;10:00;14,57
19.03.2024;09:45;14,48
19.03.2024;09:30;13,87
19.03.2024;09:15;13,23
19.03.2024;09:00;13,11
19.03.2024;08:45;13,02
19.03.2024;08:30;12,96
19.03.2024;08:15;12,90
19.03.2024;08:00;12,90
19.03.2024;07:45;12,90
19.03.2024;07:30;12,87
19.03.2024;07:15;12,87
19.03.2024;07:00;12,87
19.03.2024;06:45;12,90
19.03.2024;06:30;12,90
19.03.2024;06:15;12,90
19.03.2024;06:00;12,90
19.03.2024;05:45;12,90
19.03.2024;05:30;12,90
19.03.2024;05:15;12,90
19.03.2024;05:00;12,90
19.03.2024;04:45;12,93
19.03.2024;04:30;12,90
19.03.2024;04:15;12,93
19.03.2024;04:00;12,93
19.03.2024;03:45;12,93
19.03.2024;03:30;12,93
19.03.2024;03:15;12,93
19.03.2024;03:00;12,96
19.03.2024;02:45;12,96
19.03.2024;02:30;12,96
19.03.2024;02:15;12,96
19.03.2024;02:00;12,99
19.03.2024;01:45;12,99
19.03.2024;01:30;12,96
19.03.2024;01:15;12,96
19.03.2024;01:00;13,02
19.03.2024;00:45;12,99
19.03.2024;00:30;13,02
19.03.2024;00:15;13,02
19.03.2024;00:00;13,02
18.03.2024;23:45;12,93
18.03.2024;23:30;13,02
18.03.2024;23:15;13,02
18.03.2024;23:00;13,02
18.03.2024;22:45;13,05
18.03.2024;22:30;13,08
18.03.2024;22:15;13,05
18.03.2024;22:00;13,08
18.03.2024;21:45;13,08
18.03.2024;21:30;13,11
18.03.2024;21:15;13,11
18.03.2024;21:00;13,11
18.03.2024;20:45;13,14
18.03.2024;20:30;13,14
18.03.2024;20:15;13,17
18.03.2024;20:00;13,20
18.03.2024;19:45;13,23
18.03.2024;19:30;13,26
18.03.2024;19:15;13,29
18.03.2024;19:00;13,36
18.03.2024;18:45;13,39
18.03.2024;18:30;13,48
18.03.2024;18:15;13,63
18.03.2024;18:00;13,96
18.03.2024;17:45;13,90
18.03.2024;17:30;13,93
18.03.2024;17:15;13,93
18.03.2024;17:00;13,96
18.03.2024;16:45;13,96
18.03.2024;16:30;13,99
18.03.2024;16:15;13,99
18.03.2024;16:00;14,02
18.03.2024;15:45;14,02
18.03.2024;15:30;14,02
18.03.2024;15:15;14,02
18.03.2024;15:00;13,99
18.03.2024;14:45;14,02
18.03.2024;14:30;14,05
18.03.2024;14:15;14,09
18.03.2024;14:00;14,12
18.03.2024;13:45;14,15
18.03.2024;13:30;14,18
18.03.2024;13:15;14,21
18.03.2024;13:00;14,27
18.03.2024;12:45;14,30
18.03.2024;12:30;14,33
18.03.2024;12:15;14,33
18.03.2024;12:00;14,33
18.03.2024;11:45;14,94
18.03.2024;11:30;14,97
18.03.2024;11:15;14,78
18.03.2024;11:00;14,69
18.03.2024;10:45;14,78
18.03.2024;10:30;14,57
18.03.2024;10:15;14,63
18.03.2024;10:00;14,63
18.03.2024;09:45;14,48
18.03.2024;09:30;14,36
18.03.2024;09:15;13,51
18.03.2024;09:00;13,26
18.03.2024;08:45;13,11
18.03.2024;08:30;13,02
18.03.2024;08:15;12,96
18.03.2024;08:00;12,90
18.03.2024;07:45;12,87
18.03.2024;07:30;12,90
18.03.2024;07:15;12,87